Погода в Комрате

Погода в Комрате : погода сейчас, прогноз погоды и архив. Всё, что Вы хотите узнать о погоде в Комрате!

Поиск расширенной информации на нашем сайте:

Другие новости

Новости СМИ2

Главная страница сайта

Новости сайта

03.07.2017

Напоминаем, что на нашем специализированном сайте Метеоцентр.Азия вы можете получить высокодетализированные автоматические прогнозы погоды по пунктам России, СНГ и мира в авиационном формате (включающие направление и скорость ветра, видимость, явления погоды, количество и форму облачности, нижнюю и верхнюю границу облачности).


Погода в Комрате - сегодня

Время (UTC), дата Ветер
(°,м/с) 
Видим.   Явления Облачность Т
(°С)
Тd
(°С)
f(%) Тe
(°С)
Pmin
(гПа)
dP
(гПа)
Po
(мм)
O2
(г/м3)
Тmin Tmax R s Состояние
почвы
18 22.09.18 180 (Ю) 10 км    10/10 600 м 
[Sc]
+22.5 +7.5 38 +23  1015  0.4  749  278    +29.5       
21 22.09.18 310 (СЗ) 10 км    10/10 600 м 
[Sc]
+17.7 +6.9 49 +18  1016.9  1.6  751  283           
00 23.09.18 330 (СЗ) 5{12}  10 км    10/10 600 м кучево-дожд. 
[Cb calv]
+15.5 +6.5 55 +15  1018.3  1.2  752  286    +1.6       
03 23.09.18 310 (СЗ) 10 км    10/10 600 м кучево-дожд. 
[Cb calv]
+13.3 +8.6 73 +13  1019.2  0.8  752  288           
06 23.09.18 330 (СЗ) 20000 м  в посл. час ливневой дождь  9/4 600 м кучево-дожд., средняя 
[Cb calv|Ac trans]
+12.1 +11.2 94 +15  1020.5  1.2  753  288  +11.7       
09 23.09.18 350 (С) 20000 м    9/9 600 м кучево-дожд. 
[Cb calv]
+14.4 +9.2 71 +15  1021.2  0.8  754  287           
12 23.09.18 250 (З) 20000 м    9/9 600 м кучево-дожд. 
[Cb calv]
+15.8 +8.8 63 +17  1020.7  -0.4  753  285           
15 23.09.18 170 (Ю) 20000 м    8/0 верхняя 
[Ci fib]
+16.5 +8.2 58 +18  1019.6  -1  753  285           
18 23.09.18 180 (Ю) 10 км    ясно 
+13.4 +9.3 76 +14  1019.7  -0.1  753  287    +17.7       
21 23.09.18 150 (ЮВ) 10 км    ясно 
+11.1 +8.7 85 +12  1018.6  -1.2  752  290           
00 24.09.18 170 (Ю) 10 км    ясно 
+11.1 +9 87 +11  1016.1  -2.5  750  289           
03 24.09.18 160 (Ю) 10 км    10/10 600 м 
[Sc]
+12.5 +11.7 95 +16  1012.8  -3.1  747  286           
06 24.09.18 180 (Ю) 20000 м    10/10 600 м 
[Sc]
+16.6 +15.6 94 +27  1010.5  -2  746  280  +10.8         
09 24.09.18 180 (Ю) 4{12}  20000 м    8/6 600 м средняя 
[Sc|Ac trans]
+23.8 +15.8 61 +34  1007.5  -2.6  744  272           
12 24.09.18 300 (СЗ) 20000 м    10/10 600 м кучево-дожд. 
[Cb calv]
+23.7 +15.5 60 +33  1008.3  0.8  745  273           
15 24.09.18 330 (СЗ) 6{17}  20000 м  слаб. ливневой дождь  10/10 600 м кучево-дожд. 
[Cb calv]
+10.7 +10.1 96 +10  1013.6  4.4  748  288           
18 24.09.18 320 (СЗ) 10 км  слаб. ливневой дождь  10/10 600 м кучево-дожд. 
[Cb calv]
+9.8 +8.7 93 +8  1017.2  3.5  751  290    +2.5     
21 24.09.18 290 (З) 10 км  {ливн. осадки}  10/10 600 м кучево-дожд. 
[Cb calv]
+10.1 +7.9 86 +9  1019  1.8  752  291           
00 25.09.18 300 (СЗ) 10 км  {ливн. осадки}  10/10 600 м 
[Sc]
+9.1 +4.3 72 +8  1019.7  0.6  752  293           
03 25.09.18 290 (З) 10 км    ясно 
+6.9 +3.5 79 +6  1021  1.2  753  295           
06 25.09.18 300 (СЗ) 20000 м    3/0 верхняя 
[Ci sp]
+10.1 +3.6 64 +9  1022.7  1.8  755  293  +6.7      влажная 
09 25.09.18 310 (СЗ) 6{14}  20000 м    8/8 600 м кучево-дожд. 
[Cb calv]
+12.2 +3.4 55 +11  1024.2  1.6  756  291           
12 25.09.18 310 (СЗ) 6{14}  20000 м    8/8 600 м 
[Sc diur, vesp]
+13.1 +1.4 45 +12  1025.2  1.1  757  291    +2.3       
15 25.09.18 310 (СЗ) 5{15}  20000 м    4/3 600 м верхняя 
[Sc diur, vesp|Ci]
+11.7 +0.8 47 +11  1026.2  0.9  757  292           
18 25.09.18 310 (СЗ) 10 км    ясно 
+8.4 +1.8 63 +8  1029.3  2.8  759  297    +13.6       
Время (UTC), дата Ветер
(°,м/с) 
Видим.   Явления Облачность Т
(°С)
Тd
(°С)
f(%) Тe
(°С)
Pmin
(гПа)
dP
(гПа)
Po
(мм)
O2
(г/м3)
Тmin Tmax R s Состояние
почвы

Для получения пояснительной информации подведите курсор к названию столбца.

ПОГОДА в Комрате - архив

Всё, что Вы хотите узнать о погоде в Комрате - удобно и подробно!

Выберите нужную дату (начиная с 1 января 2015* года) и нажмите кнопку "Найти".
Будут отображены архивные сводки погоды по пункту Комрат, начиная с указанной даты.


Отображать данные в формате CSV (для использования в таблицах Excel)


Внимание! Наш архив погоды предназначен исключительно для личного некоммерческого использования в познавательных целях. Если Вам необходимы официальные справки о состоянии погоды (для производственных, юридических, коммерческих и т.п. целей), обращайтесь в органы Росгидромета.

*Примечание: данная дата относится к архиву по метеостанциям СССР (Россия, СНГ, Балтия).
Архив по метеостанциям Зарубежной Европы и Азии (кроме Китая) хранится 10 дней, по другим регионам земного шара (Китай, Африка, Америка, Австралия, Океания) - 1 день.

Комрат - район местоположения метеостанции


Название, широта, долгота, высота метеостанции:
Комрат 46.3°ш. 28.6°д. 133 м над ур. моря [Молдавия]

Дополнительная информация

В oтличие oт бoльшинства пoгoдных сайтoв мы публикуем пoдрoбную метеoинфoрмацию в детальнoм прoфессиoнальнoм фoрмате.

Характеристики температуры и влажнoсти вoздуха измеряются на высoте 2 м в тени вдали oт зданий и деревьев.
Скoрoсть ветра измеряется на высoте 10 м (на урoвне рoста челoвека скoрoсть ветра ниже в 1.5-2 раза). Если метеoстанция нахoдится в гoрoде или в лесу, тo скoрoсть ветра занижена на 2-4 м/с пo сравнению с oткрытым местoм. Скoрoсть ветра над акватoриями крупных рек и oзёр, а также на вершинах хoлмoв на 2-5 м/с выше, чем в oбычных услoвиях.
Атмoсфернoе давление в разных тoчках местнoсти мoжет значительнo oтличаться oт давления на метеoстанции, в зависимoсти oт услoвий рельефа (при пoдъёме на 10 м давление пoнижается примернo на 1 мм рт.ст.).